| time (UTC) | temp C | wind direction | speed KPH | gust KPH | rain 1hr cm | rain 24hr cm | rain mn cm | humidity % | barometer mb |
| 20260506153035 | 12 | 20 | 0.0 | 1.6 | 0.00 | 0.00 | 0.00 | 1 | 1012.4 |
| 20260506151535 | 12 | 23 | 0.0 | 1.6 | 0.00 | 0.00 | 0.00 | 3 | 1015.1 |
| 20260506150028 | 12 | 233 | 0.0 | 1.6 | 0.00 | 0.00 | 0.00 | 24 | 1015.1 |
| 20260506144525 | 12 | 201 | 0.0 | 1.6 | 0.00 | 0.00 | 0.00 | 33 | 1014.8 |
| 20260506143021 | 12 | 342 | 0.0 | 3.2 | 0.00 | 0.00 | 0.00 | 40 | 1013.0 |
| 20260506141520 | 12 | 20 | 0.0 | 1.6 | 0.00 | 0.00 | 0.00 | 41 | 1013.4 |
| 20260506140025 | 12 | 13 | 0.0 | 3.2 | 0.00 | 0.00 | 0.00 | 44 | 1013.3 |
| 20260506134515 | 13 | 6 | 0.0 | 1.6 | 0.00 | 0.00 | 0.00 | 47 | 1012.9 |
| 20260506133016 | 13 | 338 | 0.0 | 1.6 | 0.00 | 0.00 | 0.00 | 50 | 1012.8 |
| 20260506131515 | 13 | 352 | 0.0 | 3.2 | 0.00 | 0.00 | 0.00 | 53 | 1012.6 |
| 20260506130009 | 13 | 342 | 0.0 | 3.2 | 0.00 | 0.00 | 0.00 | 57 | 1012.0 |
| 20260506124507 | 13 | 1 | 0.0 | 1.6 | 0.00 | 0.00 | 0.00 | 59 | 1012.2 |
| 20260506123005 | 13 | 15 | 0.0 | 1.6 | 0.00 | 0.00 | 0.00 | 59 | 1011.9 |
| 20260506121601 | 13 | 5 | 0.0 | 3.2 | 0.00 | 0.00 | 0.00 | 60 | 1011.5 |
| 20260506114558 | 13 | 347 | 0.0 | 1.6 | 0.00 | 0.00 | 0.00 | 60 | 1011.5 |
| 20260506113053 | 14 | 340 | 0.0 | 1.6 | 0.00 | 0.00 | 0.00 | 59 | 1011.0 |
| 20260506111551 | 14 | 4 | 0.0 | 1.6 | 0.00 | 0.00 | 0.00 | 59 | 1010.7 |
| 20260506110049 | 14 | 350 | 0.0 | 1.6 | 0.00 | 0.00 | 0.00 | 59 | 1010.7 |
| 20260506104548 | 15 | 344 | 0.0 | 1.6 | 0.00 | 0.00 | 0.00 | 58 | 1010.4 |
| 20260506103044 | 15 | 15 | 0.0 | 3.2 | 0.00 | 0.00 | 0.00 | 59 | 1010.0 |
| 20260506101544 | 15 | 354 | 0.0 | 1.6 | 0.00 | 0.00 | 0.00 | 58 | 1009.7 |
| 20260506100042 | 15 | 349 | 0.0 | 1.6 | 0.00 | 0.00 | 0.00 | 57 | 1009.5 |
| 20260506094536 | 15 | 330 | 0.0 | 1.6 | 0.00 | 0.00 | 0.00 | 58 | 1009.4 |
| 20260506093032 | 16 | 354 | 0.0 | 1.6 | 0.00 | 0.00 | 0.00 | 57 | 1009.2 |
| 20260506091532 | 16 | 356 | 0.0 | 1.6 | 0.00 | 0.00 | 0.00 | 57 | 1009.2 |
| 20260506090030 | 16 | 356 | 0.0 | 1.6 | 0.00 | 0.00 | 0.00 | 57 | 1009.0 |
| 20260506084529 | 16 | 6 | 0.0 | 1.6 | 0.00 | 0.00 | 0.00 | 56 | 1009.0 |
| 20260506083027 | 16 | 9 | 0.0 | 1.6 | 0.00 | 0.00 | 0.00 | 57 | 1008.7 |
| 20260506081524 | 16 | 11 | 0.0 | 1.6 | 0.00 | 0.00 | 0.00 | 56 | 1008.8 |
| 20260506073021 | 17 | 26 | 0.0 | 1.6 | 0.00 | 0.00 | 0.00 | 53 | 1008.4 |
| 20260506071520 | 17 | 359 | 0.0 | 1.6 | 0.00 | 0.00 | 0.00 | 52 | 1008.4 |
| 20260506061514 | 17 | 13 | 0.0 | 1.6 | 0.00 | 0.00 | 0.00 | 55 | 1008.4 |
| 20260506044557 | 19 | 352 | 0.0 | 3.2 | 0.00 | 0.00 | 0.00 | 59 | 1008.1 |
| 20260506043052 | 20 | 338 | 0.0 | 3.2 | 0.00 | 0.00 | 0.00 | 58 | 1008.3 |
| 20260506041553 | 20 | 4 | 0.0 | 3.2 | 0.00 | 0.00 | 0.00 | 59 | 1008.1 |
| 20260506040044 | 20 | 360 | 0.0 | 1.6 | 0.00 | 0.00 | 0.00 | 59 | 1007.9 |
| 20260506034540 | 20 | 354 | 0.0 | 3.2 | 0.00 | 0.00 | 0.00 | 60 | 1007.2 |
| 20260506033037 | 21 | 352 | 0.0 | 1.6 | 0.00 | 0.00 | 0.00 | 62 | 1007.2 |
| 20260506031535 | 21 | 15 | 0.0 | 1.6 | 0.00 | 0.00 | 0.00 | 62 | 1006.8 |
| 20260506030046 | 21 | 345 | 0.0 | 1.6 | 0.00 | 0.00 | 0.00 | 62 | 1006.6 |
| 20260506024527 | 22 | 6 | 0.0 | 1.6 | 0.00 | 0.00 | 0.00 | 62 | 1006.6 |
| 20260506023016 | 22 | 4 | 0.0 | 3.2 | 0.00 | 0.00 | 0.00 | 62 | 1006.2 |
| 20260506021512 | 22 | 311 | 0.0 | 1.6 | 0.00 | 0.00 | 0.00 | 62 | 1005.8 |
| 20260506020007 | 23 | 346 | 0.0 | 1.6 | 0.00 | 0.00 | 0.00 | 62 | 1005.1 |
| 20260506014503 | 23 | 353 | 0.0 | 1.6 | 0.00 | 0.00 | 0.00 | 62 | 1004.9 |
| 20260506013100 | 23 | 359 | 0.0 | 1.6 | 0.00 | 0.00 | 0.00 | 62 | 1004.9 |
| 20260506011554 | 25 | 358 | 0.0 | 1.6 | 0.00 | 0.00 | 0.00 | 61 | 1004.3 |
| 20260506010053 | 25 | 352 | 0.0 | 1.6 | 0.00 | 0.00 | 0.00 | 60 | 1004.4 |
| 20260506004551 | 26 | 4 | 0.0 | 1.6 | 0.00 | 0.00 | 0.00 | 60 | 1003.9 |
| 20260506003045 | 26 | 5 | 0.0 | 1.6 | 0.00 | 0.00 | 0.00 | 59 | 1003.9 |
| 20260506001543 | 27 | 41 | 0.0 | 1.6 | 0.00 | 0.00 | 0.00 | 58 | 1003.7 |
| 20260506000035 | 27 | 347 | 0.0 | 1.6 | 0.00 | 0.00 | 0.00 | 57 | 1003.6 |
| 20260505234533 | 28 | 1 | 0.0 | 3.2 | 0.00 | 0.00 | 0.00 | 56 | 1003.2 |
| 20260505233027 | 29 | 356 | 0.0 | 1.6 | 0.00 | 0.00 | 0.00 | 53 | 1002.8 |
| 20260505231527 | 30 | 352 | 0.0 | 1.6 | 0.00 | 0.00 | 0.00 | 49 | 1002.7 |
| 20260505230021 | 31 | 228 | 0.0 | 1.6 | 0.00 | 0.00 | 0.00 | 49 | 1002.5 |
| 20260505224514 | 32 | 271 | 0.0 | 1.6 | 0.00 | 0.00 | 0.00 | 47 | 1002.0 |
| 20260505223009 | 34 | 288 | 0.0 | 1.6 | 0.00 | 0.00 | 0.00 | 46 | 1002.1 |
| 20260505221506 | 35 | 5 | 0.0 | 0.0 | 0.00 | 0.00 | 0.00 | 45 | 1001.9 |
| 20260505220101 | 35 | 326 | 0.0 | 1.6 | 0.00 | 0.00 | 0.00 | 46 | 1001.9 |
| 20260505214604 | 35 | 343 | 0.0 | 1.6 | 0.00 | 0.00 | 0.00 | 42 | 1001.9 |
| 20260505213051 | 34 | 268 | 0.0 | 1.6 | 0.00 | 0.00 | 0.00 | 46 | 1002.1 |
| 20260505211547 | 34 | 228 | 0.0 | 1.6 | 0.00 | 0.00 | 0.00 | 48 | 1002.3 |
| 20260505210042 | 34 | 197 | 0.0 | 1.6 | 0.00 | 0.00 | 0.00 | 49 | 1002.5 |
| 20260505204538 | 33 | 231 | 0.0 | 1.6 | 0.00 | 0.00 | 0.00 | 50 | 1002.7 |
| 20260505203039 | 33 | 236 | 0.0 | 1.6 | 0.00 | 0.00 | 0.00 | 49 | 1002.9 |
| 20260505201534 | 33 | 246 | 0.0 | 4.8 | 0.00 | 0.00 | 0.00 | 50 | 1002.9 |
| 20260505200024 | 33 | 161 | 0.0 | 4.8 | 0.00 | 0.00 | 0.00 | 53 | 1003.2 |
| 20260505194523 | 32 | 217 | 0.0 | 4.8 | 0.00 | 0.00 | 0.00 | 52 | 1003.2 |
| 20260505193016 | 32 | 200 | 0.0 | 1.6 | 0.00 | 0.00 | 0.00 | 54 | 1003.3 |
| 20260505191512 | 32 | 140 | 0.0 | 3.2 | 0.00 | 0.00 | 0.00 | 55 | 1003.2 |
| 20260505190007 | 31 | 171 | 0.0 | 3.2 | 0.00 | 0.00 | 0.00 | 56 | 1003.4 |
| 20260505184503 | 30 | 294 | 0.0 | 3.2 | 0.00 | 0.00 | 0.00 | 57 | 1003.4 |
| 20260505183058 | 30 | 194 | 0.0 | 3.2 | 0.00 | 0.00 | 0.00 | 57 | 1003.5 |
| 20260505181556 | 30 | 195 | 0.0 | 4.8 | 0.00 | 0.00 | 0.00 | 57 | 1003.7 |
| 20260505180054 | 29 | 170 | 0.0 | 1.6 | 0.00 | 0.00 | 0.00 | 57 | 1003.8 |
| 20260505174548 | 28 | 226 | 0.0 | 4.8 | 0.00 | 0.00 | 0.00 | 56 | 1003.9 |
| 20260505173044 | 28 | 158 | 0.0 | 3.2 | 0.00 | 0.00 | 0.00 | 55 | 1003.9 |
| 20260505171547 | 28 | 291 | 0.0 | 6.4 | 0.00 | 0.00 | 0.00 | 57 | 1003.8 |
| 20260505170038 | 28 | 184 | 0.0 | 3.2 | 0.00 | 0.00 | 0.00 | 56 | 1003.9 |
| 20260505164537 | 28 | 155 | 0.0 | 6.4 | 0.00 | 0.00 | 0.00 | 56 | 1004.0 |
| 20260505163031 | 28 | 214 | 0.0 | 3.2 | 0.00 | 0.00 | 0.00 | 52 | 1003.8 |
| 20260505161522 | 27 | 221 | 0.0 | 4.8 | 0.00 | 0.00 | 0.00 | 46 | 1003.7 |